Location: *
(53.9002°N, 27.5624°E)
Time: 18:18:18
(UTC+00:00)

Cosmos 2278 Rocket - Pass Details

Date: 12 November 2019
Orbit: 841 x 846 km, 71.0° (Epoch: 14 December)

Event Time Altitude Azimuth Distance (km) Brightness Sun altitude
Rises 15:07:57 0° 278° (W) 3,410 6.6 -7.7°
Reaches altitude 10° 15:11:15 10° 297° (WNW) 2,477 5.3 -8.2°
Maximum altitude 15:15:02 18° 339° (NNW) 1,980 4.2 -8.7°
Drops below altitude 10° 15:18:50 10° 21° (NNE) 2,481 4.3 -9.2°
Enters shadow 15:20:46 - 34° (NE) 2,997 4.6 -9.5°
